KI7LNA Weather Reports


Display with metric or nautical units.
time (UTC)temp
F
wind
direction
speed
MPH
gust
MPH
rain 1hr
in
rain 24hr
in
rain mn
in
humidity
%
barometer
mb
20260510045902 52 38 4.0 4.0 0.00 0.00 0.00 69 936.0
20260510045401 52 17 2.0 3.0 0.00 0.00 0.00 68 935.7
20260510044901 52 59 3.0 3.0 0.00 0.00 0.00 68 935.7
20260510044401 52 53 3.0 4.0 0.00 0.00 0.00 68 935.7
20260510043902 53 39 4.0 5.0 0.00 0.00 0.00 66 935.7
20260510043401 53 38 3.0 3.0 0.00 0.00 0.00 64 936.0
20260510042901 54 85 1.0 3.0 0.00 0.00 0.00 63 935.7
20260510042402 54 107 2.0 3.0 0.00 0.00 0.00 64 935.7
20260510041901 55 126 4.0 4.0 0.00 0.00 0.00 63 935.7
20260510041401 55 70 2.0 3.0 0.00 0.00 0.00 62 935.3
20260510040903 56 67 2.0 2.0 0.00 0.00 0.00 59 935.7
20260510040401 58 81 1.0 2.0 0.00 0.00 0.00 53 935.7
20260510035901 58 81 1.0 2.0 0.00 0.00 0.00 53 935.3
20260510035401 58 81 1.0 2.0 0.00 0.00 0.00 53 935.3
20260510034902 58 81 1.0 2.0 0.00 0.00 0.00 53 935.3
20260510034401 58 81 1.0 2.0 0.00 0.00 0.00 53 935.3
20260510033902 59 79 2.0 2.0 0.00 0.00 0.00 53 935.3
20260510033401 59 69 1.0 1.0 0.00 0.00 0.00 51 935.3
20260510032902 60 123 2.0 2.0 0.00 0.00 0.00 51 935.3
20260510032402 60 62 2.0 3.0 0.00 0.00 0.00 50 935.3
20260510031904 61 38 0.0 0.0 0.00 0.00 0.00 48 935.3
20260510031402 62 40 2.0 3.0 0.00 0.00 0.00 46 935.3
20260510030901 62 18 3.0 3.0 0.00 0.00 0.00 45 935.0
20260510030401 63 37 3.0 4.0 0.00 0.00 0.00 44 935.0
20260510025902 63 10 2.0 4.0 0.00 0.00 0.00 43 935.3
20260510025401 64 26 4.0 4.0 0.00 0.00 0.00 42 935.3
20260510024901 64 7 3.0 4.0 0.00 0.00 0.00 43 935.3
20260510024401 65 2 3.0 6.0 0.00 0.00 0.00 41 935.0
20260510023902 66 8 0.0 3.0 0.00 0.00 0.00 38 935.0
20260510023401 66 12 0.0 2.0 0.00 0.00 0.00 38 935.0
20260510022902 66 336 1.0 1.0 0.00 0.00 0.00 37 935.0
20260510022401 67 61 0.0 2.0 0.00 0.00 0.00 36 935.0
20260510021901 67 41 2.0 2.0 0.00 0.00 0.00 35 935.0
20260510021401 68 38 1.0 2.0 0.00 0.00 0.00 35 935.0
20260510020901 68 117 1.0 2.0 0.00 0.00 0.00 35 935.0
20260510020402 68 282 7.0 7.0 0.00 0.00 0.00 34 935.0
20260510015901 68 343 5.0 6.0 0.00 0.00 0.00 34 934.6
20260510015402 68 345 3.0 5.0 0.00 0.00 0.00 34 935.0
20260510014902 68 322 4.0 9.0 0.00 0.00 0.00 33 935.0
20260510014401 69 349 5.0 10.0 0.00 0.00 0.00 32 935.0
20260510013901 69 301 9.0 11.0 0.00 0.00 0.00 31 935.0
20260510013401 69 282 7.0 11.0 0.00 0.00 0.00 32 935.0
20260510012902 69 337 7.0 10.0 0.00 0.00 0.00 31 935.0
20260510012402 69 277 4.0 10.0 0.00 0.00 0.00 31 935.0
20260510011901 69 323 7.0 12.0 0.00 0.00 0.00 32 935.0
20260510011401 69 349 9.0 12.0 0.00 0.00 0.00 31 935.3
20260510010902 69 335 6.0 11.0 0.00 0.00 0.00 32 935.3
20260510010402 69 313 11.0 12.0 0.00 0.00 0.00 31 935.0
20260510005901 69 326 7.0 11.0 0.00 0.00 0.00 31 935.0
20260510005401 69 319 9.0 14.0 0.00 0.00 0.00 32 935.3
20260510004901 69 321 12.0 12.0 0.00 0.00 0.00 31 935.0
20260510004401 69 328 11.0 13.0 0.00 0.00 0.00 32 935.0
20260510003901 69 293 6.0 13.0 0.00 0.00 0.00 32 935.3
20260510003402 69 297 1.0 10.0 0.00 0.00 0.00 33 935.0
20260510002902 69 335 6.0 12.0 0.00 0.00 0.00 32 935.0
20260510002402 69 337 13.0 16.0 0.00 0.00 0.00 32 935.0
20260510001902 69 327 7.0 11.0 0.00 0.00 0.00 33 935.0
20260510001401 69 318 10.0 15.0 0.00 0.00 0.00 32 935.0
20260510000901 69 292 7.0 14.0 0.00 0.00 0.00 34 935.0
20260510000404 69 303 11.0 13.0 0.00 0.00 0.00 33 935.0
20260509235902 69 332 10.0 12.0 0.00 0.00 0.00 33 935.0
20260509235401 69 282 9.0 15.0 0.00 0.00 0.00 33 935.0
20260509234901 70 316 8.0 12.0 0.00 0.00 0.00 33 935.0
20260509234401 69 307 2.0 6.0 0.00 0.00 0.00 34 935.0
20260509233902 69 17 4.0 13.0 0.00 0.00 0.00 32 935.0
20260509233401 69 245 4.0 9.0 0.00 0.00 0.00 31 935.0
20260509232901 69 316 6.0 15.0 0.00 0.00 0.00 32 935.0
20260509232401 69 341 5.0 11.0 0.00 0.00 0.00 33 935.0
20260509231901 69 294 5.0 11.0 0.00 0.00 0.00 33 935.0
20260509231402 69 334 5.0 14.0 0.00 0.00 0.00 33 935.3
20260509230902 69 244 4.0 11.0 0.00 0.00 0.00 34 935.0
20260509230401 69 316 3.0 5.0 0.00 0.00 0.00 32 935.0
20260509225902 69 328 2.0 8.0 0.00 0.00 0.00 31 935.3
20260509225402 69 322 3.0 10.0 0.00 0.00 0.00 32 935.3
20260509224901 70 260 3.0 13.0 0.00 0.00 0.00 31 935.0
20260509224402 69 268 5.0 6.0 0.00 0.00 0.00 34 935.3
20260509223902 69 286 6.0 11.0 0.00 0.00 0.00 32 935.3
20260509223402 69 344 10.0 12.0 0.00 0.00 0.00 33 935.3
20260509222902 69 320 2.0 11.0 0.00 0.00 0.00 34 935.3
20260509222401 69 334 7.0 10.0 0.00 0.00 0.00 34 935.3
20260509221901 69 327 8.0 10.0 0.00 0.00 0.00 36 935.3
20260509221401 69 294 7.0 11.0 0.00 0.00 0.00 36 935.3
20260509220901 69 140 4.0 7.0 0.00 0.00 0.00 36 935.3
20260509220402 69 235 1.0 6.0 0.00 0.00 0.00 36 935.3
20260509215902 68 338 2.0 12.0 0.00 0.00 0.00 34 935.7
20260509215402 69 290 6.0 9.0 0.00 0.00 0.00 37 935.3
20260509214902 68 352 5.0 12.0 0.00 0.00 0.00 38 935.7
20260509214401 68 10 6.0 12.0 0.00 0.00 0.00 35 935.7
20260509213901 68 26 9.0 9.0 0.00 0.00 0.00 37 935.7
20260509213402 68 339 6.0 10.0 0.00 0.00 0.00 36 935.7
20260509212903 68 341 10.0 12.0 0.00 0.00 0.00 36 936.0
20260509212401 67 353 3.0 10.0 0.00 0.00 0.00 38 936.0
20260509211901 68 299 10.0 10.0 0.00 0.00 0.00 38 936.0
20260509211401 67 316 5.0 9.0 0.00 0.00 0.00 37 936.0
20260509210902 67 313 6.0 9.0 0.00 0.00 0.00 36 935.7
20260509210401 67 320 6.0 10.0 0.00 0.00 0.00 36 936.0
20260509205902 67 153 4.0 13.0 0.00 0.00 0.00 35 936.0
20260509205401 67 299 7.0 10.0 0.00 0.00 0.00 37 936.0
20260509204901 67 317 10.0 11.0 0.00 0.00 0.00 39 936.0
20260509204401 66 314 4.0 10.0 0.00 0.00 0.00 36 936.3
20260509203901 68 308 9.0 15.0 0.00 0.00 0.00 35 936.3
20260509203402 67 160 6.0 7.0 0.00 0.00 0.00 39 936.3
20260509202903 67 332 9.0 14.0 0.00 0.00 0.00 37 936.3
20260509202402 68 298 5.0 11.0 0.00 0.00 0.00 41 936.3
20260509201901 67 327 9.0 9.0 0.00 0.00 0.00 37 936.3
20260509201401 67 291 3.0 9.0 0.00 0.00 0.00 35 936.3
20260509200902 68 324 8.0 12.0 0.00 0.00 0.00 37 936.3
20260509200401 68 326 7.0 9.0 0.00 0.00 0.00 36 936.3
20260509195902 67 170 9.0 10.0 0.00 0.00 0.00 37 936.3
20260509195401 66 297 5.0 13.0 0.00 0.00 0.00 39 936.3
20260509194902 66 311 8.0 12.0 0.00 0.00 0.00 37 936.3
20260509194402 66 340 6.0 8.0 0.00 0.00 0.00 38 936.3
20260509193902 67 280 6.0 9.0 0.00 0.00 0.00 38 936.3
20260509193402 66 283 2.0 6.0 0.00 0.00 0.00 37 936.3
20260509192903 65 309 7.0 7.0 0.00 0.00 0.00 38 936.7
20260509192402 66 317 6.0 10.0 0.00 0.00 0.00 38 936.7
20260509191901 66 35 1.0 6.0 0.00 0.00 0.00 41 936.7
20260509191402 65 295 5.0 11.0 0.00 0.00 0.00 38 936.7
20260509190902 65 259 5.0 8.0 0.00 0.00 0.00 40 936.7
20260509190402 66 296 8.0 9.0 0.00 0.00 0.00 38 936.7
20260509185902 65 20 6.0 9.0 0.00 0.00 0.00 39 936.7
20260509185402 64 327 4.0 9.0 0.00 0.00 0.00 37 936.7
20260509184902 64 222 4.0 11.0 0.00 0.00 0.00 36 936.7
20260509184401 64 29 5.0 5.0 0.00 0.00 0.00 38 936.3
20260509183902 64 32 7.0 10.0 0.00 0.00 0.00 38 936.7
20260509183401 64 20 7.0 10.0 0.00 0.00 0.00 36 936.7
20260509182902 64 19 7.0 8.0 0.00 0.00 0.00 37 936.7
20260509182402 64 32 7.0 10.0 0.00 0.00 0.00 36 937.0
20260509181901 63 333 7.0 10.0 0.00 0.00 0.00 36 936.7
20260509181402 63 22 7.0 10.0 0.00 0.00 0.00 36 936.7
20260509180902 63 2 5.0 6.0 0.00 0.00 0.00 36 936.7
20260509180402 62 20 1.0 9.0 0.00 0.00 0.00 36 936.7
20260509175904 63 34 5.0 11.0 0.00 0.00 0.00 36 936.7
20260509175401 62 122 3.0 5.0 0.00 0.00 0.00 35 936.7
20260509174901 62 357 5.0 10.0 0.00 0.00 0.00 36 936.7
20260509174402 61 107 2.0 7.0 0.00 0.00 0.00 38 937.0
20260509173902 63 325 5.0 7.0 0.00 0.00 0.00 36 936.7
20260509173403 62 261 3.0 3.0 0.00 0.00 0.00 40 937.0
20260509172902 60 311 2.0 3.0 0.00 0.00 0.00 39 936.7
20260509172402 60 267 3.0 5.0 0.00 0.00 0.00 37 937.0
20260509171903 61 347 4.0 8.0 0.00 0.00 0.00 37 937.0
20260509171402 59 258 0.0 3.0 0.00 0.00 0.00 38 937.0
20260509170902 59 277 2.0 3.0 0.00 0.00 0.00 38 937.0
20260509170401 60 329 5.0 5.0 0.00 0.00 0.00 39 937.0
20260509165902 59 33 5.0 7.0 0.00 0.00 0.00 39 937.0
20260509165402 60 5 5.0 6.0 0.00 0.00 0.00 40 937.0
20260509164904 59 332 4.0 7.0 0.00 0.00 0.00 40 937.0
20260509164402 59 303 6.0 8.0 0.00 0.00 0.00 39 937.0
20260509163902 60 342 4.0 7.0 0.00 0.00 0.00 37 937.0
20260509163402 60 33 4.0 6.0 0.00 0.00 0.00 39 937.0
20260509162902 59 95 3.0 5.0 0.00 0.00 0.00 39 937.0
20260509162402 59 37 4.0 6.0 0.00 0.00 0.00 41 937.0
20260509161902 59 50 5.0 8.0 0.00 0.00 0.00 40 937.0
20260509161402 58 311 0.0 6.0 0.00 0.00 0.00 42 937.0
20260509160903 58 5 2.0 5.0 0.00 0.00 0.00 40 937.0
20260509160402 59 5 5.0 6.0 0.00 0.00 0.00 42 937.0
20260509155904 58 352 1.0 4.0 0.00 0.00 0.00 45 937.0
20260509155402 58 7 2.0 5.0 0.00 0.00 0.00 45 937.4
20260509154903 57 246 1.0 5.0 0.00 0.00 0.00 49 937.0
20260509154401 57 145 2.0 3.0 0.00 0.00 0.00 57 937.0
20260509153901 55 44 0.0 2.0 0.00 0.00 0.00 61 937.0
20260509153401 55 216 0.0 3.0 0.00 0.00 0.00 64 937.0
20260509152901 55 126 1.0 3.0 0.00 0.00 0.00 64 937.0
20260509152402 55 133 3.0 3.0 0.00 0.00 0.00 64 937.0
20260509151903 55 65 2.0 4.0 0.00 0.00 0.00 64 937.0
20260509151402 54 41 2.0 2.0 0.00 0.00 0.00 68 937.0
20260509150904 53 139 1.0 3.0 0.00 0.00 0.00 68 937.0
20260509150403 52 67 0.0 2.0 0.00 0.00 0.00 70 937.0
20260509145903 51 132 2.0 3.0 0.00 0.00 0.00 72 937.0
20260509145401 51 188 1.0 2.0 0.00 0.00 0.00 75 937.0
20260509144902 50 67 2.0 3.0 0.00 0.00 0.00 76 937.0
20260509143917 48 23 3.0 4.0 0.00 0.00 0.00 81 937.0
20260509143402 47 169 1.0 4.0 0.00 0.00 0.00 82 937.0
20260509142903 47 36 5.0 6.0 0.00 0.00 0.00 81 937.0
20260509142405 44 58 2.0 3.0 0.00 0.00 0.00 88 937.0
20260509141901 44 315 0.0 2.0 0.00 0.00 0.00 92 936.7
20260509141402 43 5 2.0 5.0 0.00 0.00 0.00 93 936.7
20260509140903 42 30 4.0 8.0 0.00 0.00 0.00 92 936.7
20260509140402 42 59 5.0 5.0 0.00 0.00 0.00 92 936.7
20260509135904 42 126 1.0 7.0 0.00 0.00 0.00 93 936.7
20260509135401 41 174 3.0 5.0 0.00 0.00 0.00 93 937.0
20260509134901 41 81 3.0 5.0 0.00 0.00 0.00 94 936.7
20260509134404 41 32 3.0 4.0 0.00 0.00 0.00 93 936.7
20260509133902 41 93 1.0 5.0 0.00 0.00 0.00 94 936.7
20260509133402 41 109 2.0 5.0 0.00 0.00 0.00 93 936.3
20260509132903 41 35 2.0 3.0 0.00 0.00 0.00 94 936.0
20260509132403 41 133 2.0 5.0 0.00 0.00 0.00 93 936.3
20260509131901 41 69 3.0 7.0 0.00 0.00 0.00 94 936.0
20260509131402 41 38 4.0 6.0 0.00 0.00 0.00 93 936.0
20260509130903 41 31 3.0 5.0 0.00 0.00 0.00 93 936.0
20260509130404 41 332 4.0 7.0 0.00 0.00 0.00 93 935.7
20260509125902 42 71 3.0 5.0 0.00 0.00 0.00 92 935.7
20260509125402 42 15 5.0 5.0 0.00 0.00 0.00 92 935.3
20260509124901 42 35 2.0 4.0 0.00 0.00 0.00 91 935.3
20260509124402 42 109 3.0 6.0 0.00 0.00 0.00 92 935.3
20260509123901 43 142 0.0 2.0 0.00 0.00 0.00 90 935.3
20260509123402 43 33 4.0 8.0 0.00 0.00 0.00 90 935.3
20260509122903 43 112 1.0 7.0 0.00 0.00 0.00 90 935.3
20260509122403 43 42 5.0 5.0 0.00 0.00 0.00 90 935.0
20260509121904 43 12 2.0 2.0 0.00 0.00 0.00 90 935.0
20260509121401 43 49 3.0 3.0 0.00 0.00 0.00 90 935.3
20260509120903 43 34 2.0 5.0 0.00 0.00 0.00 91 935.0
20260509120405 43 161 1.0 4.0 0.00 0.00 0.00 91 935.0
20260509115903 43 111 1.0 2.0 0.00 0.00 0.00 91 935.0
20260509115402 43 117 2.0 3.0 0.00 0.00 0.00 91 935.0
20260509114901 44 75 1.0 2.0 0.00 0.00 0.00 90 935.0
20260509114402 44 31 3.0 4.0 0.00 0.00 0.00 91 935.0
20260509113902 44 26 4.0 4.0 0.00 0.00 0.00 91 934.6
20260509113402 44 33 4.0 5.0 0.00 0.00 0.00 91 934.6
20260509112901 44 26 2.0 4.0 0.00 0.00 0.00 91 934.6
20260509112401 44 34 5.0 5.0 0.00 0.00 0.00 91 934.3
20260509111902 44 23 3.0 4.0 0.00 0.00 0.00 91 934.6
20260509111401 44 353 1.0 2.0 0.00 0.00 0.00 90 934.6
20260509110903 44 50 0.0 2.0 0.00 0.00 0.00 90 934.6
20260509110404 44 37 3.0 5.0 0.00 0.00 0.00 89 934.3
20260509105901 45 29 5.0 5.0 0.00 0.00 0.00 88 934.3
20260509105401 45 35 5.0 5.0 0.00 0.00 0.00 87 934.3
20260509104902 45 32 3.0 3.0 0.00 0.00 0.00 86 934.0
20260509104402 45 41 5.0 5.0 0.00 0.00 0.00 85 934.3
20260509103902 45 30 3.0 4.0 0.00 0.00 0.00 86 934.0
20260509103401 45 30 3.0 4.0 0.00 0.00 0.00 86 934.0
20260509102901 45 59 3.0 3.0 0.00 0.00 0.00 86 933.6
20260509102401 45 96 1.0 1.0 0.00 0.00 0.00 86 934.0
20260509101903 45 22 1.0 3.0 0.00 0.00 0.00 85 933.6
20260509101403 45 129 0.0 2.0 0.00 0.00 0.00 84 933.6
20260509100903 46 55 1.0 2.0 0.00 0.00 0.00 83 933.6
20260509100403 46 73 2.0 3.0 0.00 0.00 0.00 83 933.6
20260509095901 46 152 2.0 3.0 0.00 0.00 0.00 81 933.6
20260509095401 47 105 1.0 2.0 0.00 0.00 0.00 78 933.6
20260509094901 47 60 4.0 5.0 0.00 0.00 0.00 79 933.6
20260509094402 46 99 2.0 3.0 0.00 0.00 0.00 80 933.3
20260509093902 47 109 1.0 3.0 0.00 0.00 0.00 83 933.6
20260509093402 47 62 3.0 5.0 0.00 0.00 0.00 83 933.3
20260509092902 47 50 5.0 5.0 0.00 0.00 0.00 84 933.3
20260509092403 47 103 0.0 0.0 0.00 0.00 0.00 83 933.3
20260509091902 47 74 2.0 3.0 0.00 0.00 0.00 83 933.3
20260509091401 47 117 2.0 3.0 0.00 0.00 0.00 82 933.3
20260509090901 47 123 2.0 3.0 0.00 0.00 0.00 82 933.3
20260509090401 47 95 2.0 3.0 0.00 0.00 0.00 81 933.3
20260509085902 48 130 2.0 3.0 0.00 0.00 0.00 80 933.0
20260509085401 48 107 2.0 4.0 0.00 0.00 0.00 81 933.3
20260509084903 48 78 2.0 3.0 0.00 0.00 0.00 81 933.0
20260509084402 48 78 2.0 2.0 0.00 0.00 0.00 80 933.3
20260509083902 48 111 1.0 3.0 0.00 0.00 0.00 80 933.3
20260509083405 48 64 3.0 3.0 0.00 0.00 0.00 80 933.0
20260509082901 49 104 0.0 2.0 0.00 0.00 0.00 79 933.0
20260509082402 49 105 2.0 2.0 0.00 0.00 0.00 77 933.0
20260509081903 48 72 2.0 3.0 0.00 0.00 0.00 77 933.0
20260509081401 48 64 3.0 3.0 0.00 0.00 0.00 79 933.0
20260509080903 48 52 4.0 4.0 0.00 0.00 0.00 81 933.0
20260509080403 48 47 3.0 3.0 0.00 0.00 0.00 81 933.0
20260509075902 48 89 0.0 2.0 0.00 0.00 0.00 80 933.3
20260509075402 48 74 2.0 4.0 0.00 0.00 0.00 80 933.0
20260509074901 49 94 1.0 2.0 0.00 0.00 0.00 78 933.0
20260509074402 49 145 0.0 2.0 0.00 0.00 0.00 76 933.0
20260509073903 49 127 2.0 3.0 0.00 0.00 0.00 76 933.0
20260509073401 49 87 2.0 3.0 0.00 0.00 0.00 75 933.0
20260509072903 49 138 3.0 3.0 0.00 0.00 0.00 75 932.6
20260509072402 49 76 3.0 3.0 0.00 0.00 0.00 75 933.0
20260509071902 49 161 1.0 3.0 0.00 0.00 0.00 74 932.6
20260509071402 49 82 2.0 2.0 0.00 0.00 0.00 74 932.6
20260509070902 49 42 0.0 1.0 0.00 0.00 0.00 74 932.6
20260509070402 50 51 1.0 2.0 0.00 0.00 0.00 74 932.6
20260509065902 50 114 2.0 3.0 0.00 0.00 0.00 73 932.6
20260509065402 50 125 3.0 3.0 0.00 0.00 0.00 71 932.3
20260509064902 50 121 2.0 3.0 0.00 0.00 0.00 72 932.6
20260509064404 50 93 2.0 3.0 0.00 0.00 0.00 72 932.6
20260509063901 50 45 3.0 4.0 0.00 0.00 0.00 72 932.3
20260509063403 51 34 2.0 3.0 0.00 0.00 0.00 72 932.6
20260509062903 51 21 3.0 3.0 0.00 0.00 0.00 74 932.6
20260509062401 51 52 4.0 4.0 0.00 0.00 0.00 72 932.6
20260509061901 52 93 1.0 2.0 0.00 0.00 0.00 71 932.6
20260509061401 52 86 2.0 3.0 0.00 0.00 0.00 68 932.3
20260509060901 53 116 0.0 2.0 0.00 0.00 0.00 66 932.3
20260509060402 53 101 3.0 4.0 0.00 0.00 0.00 63 932.3
20260509055902 53 80 2.0 2.0 0.00 0.00 0.00 64 932.3
20260509055402 53 97 3.0 4.0 0.00 0.00 0.00 67 932.3
20260509054901 53 38 3.0 3.0 0.00 0.00 0.00 66 932.3
20260509054402 54 112 3.0 4.0 0.00 0.00 0.00 64 931.9
20260509053902 54 44 0.0 2.0 0.00 0.00 0.00 66 931.9
20260509053402 55 37 3.0 5.0 0.00 0.00 0.00 65 931.9
20260509052901 55 42 5.0 6.0 0.00 0.00 0.00 64 931.9
20260509052402 55 30 2.0 3.0 0.00 0.00 0.00 62 931.9
20260509051902 56 246 0.0 2.0 0.00 0.00 0.00 61 931.9
20260509051402 56 109 4.0 5.0 0.00 0.00 0.00 53 931.9
20260509050901 56 25 4.0 4.0 0.00 0.00 0.00 56 931.9
20260509050402 56 65 2.0 5.0 0.00 0.00 0.00 54 931.9